星链-11541 (STARLINK-11541)

导读 | 豆包AI

STARLINK-11541是美国太空探索技术公司(SpaceX)研发运营的星链低轨互联网通信卫星,于2025年2月15日发射。该卫星运行在倾角53.156°的近地轨道,近地点约476.7公里,远地点约478.7公里,属于星链V1.0平台,依托星链星座为全球提供低延迟高速卫星互联网接入服务,目前仍在轨正常工作。

基本信息
目录编号:
63015
目录名称:
STARLINK-11541
国际标识:
2025-032L
轨道中心:
EARTH
卫星名称:
星链-11541
卫星全名:
星链-11541 (STARLINK-11541)
卫星状态:
在轨 (已飞行439 天)
发射日期:
2025-02-15 UTC
国别 :
美国 (US)
星等 :
--
轨道信息
数据来源 国际轨道数据
星历时间: 2026-04-30T01:24:50+0800
12小时前
查看轨道信息
半长轴: 6734.495km
偏心率: 0.0000931
轨道倾角: 42.999°
近地点辐角 311.373°
升交点赤经 247.420°
平近点角 48.705°
近地点: 355.731km
远地点: 356.985km
周期: 91.668分钟
每日圈数: 15.708883
详细信息
固有亮度:
5
最大亮度:
2.5
卫星平台:
Starlink V1.0
覆盖范围:
全球
运营商:
太空探索技术公司
运营商所在国:
美国
制造商(研发单位):
太空探索技术公司
制造商所在国:
美国
使用方式:
暂无
卫星简介
Starlink 计划是 SpaceX 推出的全球卫星互联网项目,通过发射低轨道卫星,为全球尤其是偏远地区提供高速、低延迟的互联网服务。自 2019 年起,Starlink 已部署数千颗卫星,旨在缩小全球数字鸿沟,推动互联网普及。该项目还为军事、航空等行业提供通信支持,带来广泛经济效益。
2D轨道图
3D轨道图
轨道高度分析图
轨道倾角分析图
轨道综合分析图
查看轨道综合分析图